Regional Weather Roundup
Issued by NWS

Home | Current Version | Previous Version | Text Only | Print | Product List | Glossary On
Versions: 1 2 3 4 5 6 7 8 9 10 11 12 13 14 15 16 17 18 19 20 21 22 23 24 25 26 27 28 29 30 31 32 33 34 35 36 37 38 39 40 41 42 43 44 45 46 47 48 49 50
000
ASUS44 KEWX 010011
RWRTX
SOUTH TEXAS REGIONAL WEATHER ROUNDUP
NATIONAL WEATHER SERVICE AUSTIN/SAN ANTONIO TX
700 PM CDT TUE MAY 31 2016

NOTE: "FAIR" INDICATED FEW OR NO CLOUDS BELOW 12,000 FEET WITH NO
SIGNIFICANT WEATHER AND/OR OBSTRUCTIONS TO VISIBILITY.

* - THESE STATIONS ARE NOT NWS OR FAA STATIONS...AND ARE NOT SUBJECT
    TO NWS AND FAA QUALITY CONTROL.

TXZ171-172-183>190-010100-
TEXAS HILL COUNTRY AND EDWARDS PLATEAU

CITY           SKY/WX    TMP DP  RH WIND       PRES   REMARKS
JUNCTION       MOSUNNY   74  68  81 E8        29.84R
6HR MIN TEMP:  66; 6HR MAX TEMP:  78; 6HR PCP:  1.85;

*LLANO         CLOUDY    72  72 100 E7        29.85S
BURNET         CLOUDY    71  67  87 N6        29.83R
6HR MIN TEMP:  68; 6HR MAX TEMP:  77; 6HR PCP:  0.42;

*HORSESHOE BAY CLOUDY    71  68  93 CALM      29.80S
6HR MIN TEMP:  68; 6HR MAX TEMP:  79; 6HR PCP:  1.63;

*KERRVILLE     CLOUDY    74  68  82 E6        29.84R
6HR MIN TEMP:  69; 6HR MAX TEMP:  76; 6HR PCP:  0.04;

*FREDERICKSBRG CLOUDY    72  66  82 CALM      29.86R
6HR MIN TEMP:  67; 6HR MAX TEMP:  75; 6HR PCP:  0.05;

*ROCKSPRINGS   MOSUNNY   77  68  73 CALM      29.86S
*BOERNE STAGE  CLOUDY    70  66  88 S6        29.85R
*CASTROVILLE   CLOUDY    74  69  85 E8        29.83R
HONDO          CLOUDY    77  70  79 E12       29.84R
6HR MIN TEMP:  70; 6HR MAX TEMP:  81; 6HR PCP:  1.07;

*UVALDE        CLOUDY    76  70  79 E8        29.81R
6HR MIN TEMP:  72; 6HR MAX TEMP:  87; 6HR PCP:  0.04;

DEL RIO        PTSUNNY   79  71  76 N3        29.78F
6HR MIN TEMP:  74; 6HR MAX TEMP:  81; 6HR PCP:  0.01;

LAUGHLIN AFB   CLOUDY    80  69  68 NW6       29.79S
6HR MIN TEMP:  76; 6HR MAX TEMP:  82; 6HR PCP:  0.01;

CARRIZO SPRGS  CLOUDY    81  70  69 NE7       29.75S
*EAGLE PASS    CLEAR     82  70  65 NW7       29.76F
$$

TXZ173-191>194-202-209-217>225-228-010100-
CENTRAL AND SOUTH CENTRAL TEXAS

CITY           SKY/WX    TMP DP  RH WIND       PRES   REMARKS
GEORGETOWN     SUNNY     70  66  88 CALM      29.80F
AUSTIN/BERGSTM CLOUDY    70  68  93 SE8       29.80R
6HR MIN TEMP:  70; 6HR MAX TEMP:  79; 6HR PCP:  0.67;

AUSTIN/MABRY   CLOUDY    71  69  93 SE3       29.81
6HR MIN TEMP:  67; 6HR MAX TEMP:  79; 6HR PCP:  1.06;

*AUSTIN/EXEC   CLOUDY    70  70 100 CALM      29.80R
*LAGO VISTA    CLOUDY    70  68  95 E6        29.80R
6HR MIN TEMP:  69; 6HR MAX TEMP:  78; 6HR PCP:  0.30;

SAN MARCOS     CLOUDY    72  70  94 SE5       29.80S
6HR MIN TEMP:  70; 6HR MAX TEMP:  82;

NEW BRAUNFELS  CLOUDY    71  69  93 SE5       29.78F
RANDOLPH AFB   CLOUDY    70  70 100 S5        29.80R
6HR MIN TEMP:  68; 6HR MAX TEMP:  82; 6HR PCP:  0.12;

PT SAN ANTONIO CLOUDY    74  69  82 E9        29.80F
6HR MIN TEMP:  71; 6HR MAX TEMP:  84; 6HR PCP:  1.21;

SAN ANTONIO    CLOUDY    73  67  81 SE8       29.81S
6HR MIN TEMP:  68; 6HR MAX TEMP:  84; 6HR PCP:  1.84;

STINSON FIELD  CLOUDY    75  68  78 E6        29.78R
6HR MIN TEMP:  71; 6HR MAX TEMP:  89;

*PLEASANTON    CLOUDY    70  68  94 NE6       29.82R
6HR MIN TEMP:  69; 6HR MAX TEMP:  89; 6HR PCP:  0.74;

*LA GRANGE     RAIN      71  70  97 SE6       29.81F
6HR MIN TEMP:  70; 6HR MAX TEMP:  86; 6HR PCP:  0.01;

*GIDDINGS      RAIN      71  69  95 SE9       29.85F
6HR MIN TEMP:  70; 6HR MAX TEMP:  83; 6HR PCP:  0.43;

*GONZALES      RAIN      69  69 100 SE9       29.82S
6HR MIN TEMP:  69; 6HR MAX TEMP:  87; 6HR PCP:  0.93;

$$

TXZ163>164-176>182-195>201-210>213-226-227-235-010100-
SOUTHEAST TEXAS

CITY           SKY/WX    TMP DP  RH WIND       PRES   REMARKS
COLLEGE STN    LGT RAIN  80  75  84 S3        29.83S
6HR MIN TEMP:  79; 6HR MAX TEMP:  86; 6HR PCP: TRACE;

*BRYAN         LGT RAIN  79  74  83 CALM      29.84R
6HR MIN TEMP:  79; 6HR MAX TEMP:  86;

*CALDWELL      DRIZZLE   75  75 100 SE5       29.86F
*CROCKETT      CLOUDY    82  72  69 CALM      29.87S
*BRENHAM       TSTM      79  78  95 CALM      29.85R
6HR MIN TEMP:  79; 6HR MAX TEMP:  87; 6HR PCP:  0.01;

HUNTSVILLE     CLOUDY    84  68  58 SE5       29.84R
6HR MIN TEMP:  84; 6HR MAX TEMP:  88;

CONROE         CLOUDY    80  69  69 SE8       29.85R
6HR MIN TEMP:  80; 6HR MAX TEMP:  88;

HOUSTON BUSH   CLOUDY    79  70  74 SE10      29.85R
6HR MIN TEMP:  79; 6HR MAX TEMP:  87;

HOUSTON HOBBY  CLOUDY    82  71  69 S10       29.84R
6HR MIN TEMP:  82; 6HR MAX TEMP:  89;

*HOUSTON SW AP CLOUDY    79  72  77 SE8       29.85R
6HR MIN TEMP:  79; 6HR MAX TEMP:  87;

PEARLAND       CLOUDY    83  71  67 SE9       29.86R
6HR MIN TEMP:  83; 6HR MAX TEMP:  89;

HOUSTON HOOKS  CLOUDY    82  70  66 SE7       29.84R
6HR MIN TEMP:  82; 6HR MAX TEMP:  88;

ELLINGTON FLD  CLOUDY    84  72  65 S8        29.86R
SUGAR LAND     CLOUDY    80  70  71 S13       29.83R
6HR MIN TEMP:  80; 6HR MAX TEMP:  88;

*HOUSTON EXEC  CLOUDY    81  72  74 S7        29.85R
*CLEVELAND MUN CLOUDY    79  72  79 S3        29.86R
6HR MIN TEMP:  79; 6HR MAX TEMP:  89;

*WHARTON       LGT RAIN  79  73  81 S5        29.87R
6HR MIN TEMP:  79; 6HR MAX TEMP:  88;

*COLUMBUS      TSTM      70  69  96 W6        29.86R
6HR MIN TEMP:  70; 6HR MAX TEMP:  86; 6HR PCP:  0.02;

*EAGLE LAKE    LGT RAIN  78  74  89 SW6       29.85R
6HR MIN TEMP:  78; 6HR MAX TEMP:  87; 6HR PCP:  0.01;

$$

TXZ214>216-236>238-010100-
THE UPPER TEXAS COAST

CITY           SKY/WX    TMP DP  RH WIND       PRES   REMARKS
*ORANGE        CLOUDY    82  67  60 S9        29.86S
6HR MIN TEMP:  82; 6HR MAX TEMP:  87;

PORT ARTHUR    CLOUDY    81  70  69 S7        29.84F
6HR MIN TEMP:  81; 6HR MAX TEMP:  89;

GALVESTON      PTSUNNY   81  73  76 S12       29.85R
6HR MIN TEMP:  81; 6HR MAX TEMP:  84;

ANGLETON       CLOUDY    81  72  74 S6        29.84R
6HR MIN TEMP:  81; 6HR MAX TEMP:  88;

*BAY CITY      CLOUDY    80  74  80 S3        29.86R
PALACIOS       NOT AVBL
$$

TXZ229>234-239>247-010100-
TEXAS COASTAL BEND AND RIO GRANDE PLAINS

CITY           SKY/WX    TMP DP  RH WIND       PRES   REMARKS
VICTORIA       LGT RAIN  79  75  87 N3        29.86R
6HR MIN TEMP:  79; 6HR MAX TEMP:  89; 6HR PCP:  0.01;

*BEEVILLE      TSTM      77  76  96 N10G21    29.86R
6HR MIN TEMP:  77; 6HR MAX TEMP:  89; 6HR PCP:  0.08;

ROCKPORT       TSTM      80  73  79 SE14      29.82R
6HR MIN TEMP:  81; 6HR MAX TEMP:  88; 6HR PCP: TRACE;

*PORT ARANSAS  CLOUDY    82  74  77 SE14G20   29.82R
6HR MIN TEMP:  81; 6HR MAX TEMP:  86;

*PORT LAVACA   RAIN      79  75  89 CALM      29.85S
*INGLESIDE     TSTM      71  64  78 SE16      29.81R
CORPUS CHRISTI TSTM      81  75  82 SE18      29.76S
6HR MIN TEMP:  81; 6HR MAX TEMP:  90; 6HR PCP: TRACE;

CORPUS NAS     CLOUDY    82  76  81 SE22      29.79R THUNDER
6HR MIN TEMP:  82; 6HR MAX TEMP:  89;

*ROBSTOWN      CLOUDY    79  76  92 E15G21    29.75F THUNDER
6HR MIN TEMP:  79; 6HR MAX TEMP:  90;

ALICE          CLOUDY    77  74  90 E12G37    29.77R THUNDER
6HR MIN TEMP:  70; 6HR MAX TEMP:  93; 6HR PCP:  1.14;

KINGSVILLE NAS TSTM      77  77 100 NE10      29.75R VSB 1/2
6HR MIN TEMP:  77; 6HR MAX TEMP:  91; 6HR PCP:  0.11;

COTULLA        CLOUDY    76  72  87 E14G23    29.79R
6HR MIN TEMP:  73; 6HR MAX TEMP:  94; 6HR PCP:  1.74;

*FAITH RANCH     N/A    N/A N/A N/A MISG        N/A
LAREDO         CLOUDY    93  71  48 SW7       29.69F HX 100
6HR MIN TEMP:  90; 6HR MAX TEMP:  96;

$$

TXZ248>255-010100-
DEEP SOUTH TEXAS

CITY           SKY/WX    TMP DP  RH WIND       PRES   REMARKS
BROWNSVILLE    SUNNY     84  73  69 SE13      29.78R HX  90
6HR MIN TEMP:  84; 6HR MAX TEMP:  90;

PORT ISABEL    PTSUNNY   85  74  69 SE16      29.76R HX  92
6HR MIN TEMP:  85; 6HR MAX TEMP:  92;

*SOUTH PADRE     N/A     84  75  74 S12       29.77S HX  92
HARLINGENC1F1C2F2C3F3C4F4C5F5C6F6C7M1C8M2C9!


USA.gov is the U.S. government's official web portal to all federal, state and local government web resources and services.